Location: Ferchesar
(52.6477°N, 12.4298°E)
Time: 09:44:21
(UTC+01:00)

Tiros 1 despin weight - Pass Details

Date: 11 December 2021
Orbit: 592 x 641 km, 48.2° (Epoch: 19 January)

Event Time Altitude Azimuth Distance (km) Brightness Sun altitude
Rises 14:53:03 0° 273° (W) 2,838 ? 5.8°
Reaches altitude 10° 14:55:30 10° 264° (W) 1,930 ? 5.6°
Maximum altitude 14:59:28 33° 200° (SSW) 1,006 ? 5.2°
Drops below altitude 10° 15:03:24 10° 136° (SE) 1,918 ? 4.8°
Sets 15:05:50 0° 127° (SE) 2,818 ? 4.6°
